Warning: Javascript must be enabled to use all the features on this page!


Page Loading - Please Wait...

Click to hideNews Bulletins

Peak Streamflow for the Nation

USGS 09115500 TOMICHI CREEK AT SARGENTS, CO

Saguache County, Colorado
Hydrologic Unit Code 14020003
Latitude  38°23'42.10", Longitude 106°25'21.45" NAD83
Drainage area 148  square miles
Gage datum 8,416 feet above NGVD29
Output formats
Table
Graph
Tab-separated file
peakfq (watstore) format
Reselect output format
Water
Year
Date Gage
Height
(feet)
Stream-
flow
(cfs)
1917 1917-06-16 4.05 6621
1918 1918-05-29 3.40 410
1919 1919-05-29 3.55 475
1920 1920-06-01 3.90 565
1921 1921-06-09 4.05 792
1922 1922-05-28   3402
1938 1938-05-30 2.486 424
1939 1939-05-10 1.89 291
1940 1940-05-21 1.42 167
1941 1941-05-14 2.50 445
1942 1942-05-27 3.28 664
1943 1943-05-04 2.47 408
1944 1944-06-10 2.38 461
1945 1945-05-28 2.11 335
1946 1946-06-06 1.35 146
1947 1947-05-11 2.362 368
1948 1948-05-22 2.96 548
1949 1949-06-19 2.19 402
1950 1950-06-03 1.172 178
1951 1951-05-29 2.562 440
1952 1952-06-08 2.29 627
1953 1953-05-29 2.27 591
1954 1954-05-11 1.426,2 89.0
1955 1955-05-24 1.722 126
1956 1956-05-24 2.202 288
1957 1957-06-06 3.66 804
1958 1958-05-27 3.12 628
1959 1959-06-08 1.692 168
1960 1960-06-04 2.152 306
1961 1961-06-01 2.08 287
1962 1962-05-13 2.61 474
1963 1963-08-26 1.732 168
1964 1964-05-27 2.552 440
1965 1965-06-16 2.542 447
1966 1966-05-08 1.62 151
1967 1967-05-26 1.54 128
1968 1968-06-03 2.22 344
1969 1969-05-27 1.94 223
1970 1970-05-22 3.22 622
1971 1971-06-07 2.12 274
1972 1972-06-09 1.91 212
1993 1993-05-27 3.15 637
1994 1994-05-18 2.07 288
1995 1995-06-18 4.03 964
1996 1996-05-20 2.97 486
1997 1997-06-08 3.03 527
1998 1998-05-30 2.48 389
1999 1999-05-25 2.11 284
2000 2000-05-08 2.16 297
2001 2001-05-17 2.40 359
2002 2002-03-30   60.01,2
2003 2003-05-30 2.47 339
2004 2004-05-12 1.982 217
2005 2005-05-24 2.77 433
2006 2006-05-23 2.08 241
2007 2007-05-20 2.56 366
2008 2008-05-22 3.49 707
2009 2009-05-24 2.73 453
2010 2010-05-30 2.402 359
2011 2011-06-07 2.94 507
2012 2012-04-27 1.292 77.0
2013 2013-05-27 2.032 242
2014 2014-05-31 3.17 563
2015 2015-06-07 3.13 550
2016 2016-06-06 2.93 487
2017 2017-05-16 2.90 476
2018 2018-05-11 1.792 188R
2019 2019-06-14 3.42 647
2020 2020-05-20 2.19 310
2021 2021-07-23 2.98 504
?
  Peak Gage-Height Qualification Codes.
?
  Peak Streamflow Qualification Codes.